Home   Weather   Varese   Past weeks

Flag for Italy Past Weather in Varese, Italy — Yesterday and Last 2 Weeks

Now
23 °F

Cold.


Feels Like: 23 °F
Forecast: 25 / 46 °F
Wind: 2 mph from West

Location: Stabio

Current Time: Jan 23, 2017 at 7:53:44 am

Latest Report: Jan 23, 2017 at 7:00 am


Visibility: N/A

Pressure: 30.33 "Hg

Humidity: 84%

Dew Point: 18 °F

Location of VareseLocation

Past Weather in Varese — Graph

°F

Varese Temperature Yesterday

Maximum temperature yesterday: 46 °F (at 3:00 pm)
Minimum temperature yesterday: 18 °F (at 5:00 am)
Average temperature yesterday: 28 °F

High & Low Weather Summary for the Past Weeks

 TemperatureHumidityPressure
High46 °F (Jan 22, 3:00 pm)100% (Jan 20, 5:00 am)30.59 "Hg (Jan 20, 5:00 am)
Low15 °F (Jan 9, 2:00 am)19% (Jan 16, 3:00 pm)29.53 "Hg (Jan 13, 2:00 pm)
Average29 °F63%30.18 "Hg
* Reported Jan 8 6:00 am — Jan 23 6:00 am, Varese, Weather by CustomWeather, © 2017

Note: Actual official high and low records may vary slightly from our data, if they occured in-between our weather recording intervals... More about our weather records

Advertising

Varese Weather History for the Previous 24 Hours

Scroll right to see more
 ConditionsComfort  
Time TempWeatherWind HumidityBarometerVisibility
6:00 am
Mon, Jan 23
22 °FCold.2 mph73%30.34 "HgN/A
5:00 am21 °FCold.2 mph87%30.36 "HgN/A
4:00 am21 °FCold.1 mph87%30.37 "HgN/A
3:00 am22 °FCold.1 mph91%30.37 "HgN/A
2:00 am22 °FCold.1 mph92%30.37 "HgN/A
1:00 am23 °FCold.1 mph88%30.38 "HgN/A
12:00 am25 °FChilly.2 mph81%30.39 "HgN/A
11:00 pm
Sun, Jan 22
25 °FChilly.1 mph81%30.38 "HgN/A
10:00 pm26 °FChilly.2 mph71%30.40 "HgN/A
9:00 pm26 °FChilly.No wind77%30.40 "HgN/A
8:00 pm28 °FChilly.1 mph72%30.40 "HgN/A
7:00 pm29 °FChilly.2 mph72%30.40 "HgN/A
6:00 pm32 °FChilly.No wind69%30.38 "HgN/A
5:00 pm36 °FChilly.1 mph60%30.36 "HgN/A
4:00 pm44 °FQuite cool.5 mph38%30.33 "HgN/A
3:00 pm46 °FCool.5 mph41%30.32 "HgN/A
2:00 pm46 °FCool.6 mph45%30.34 "HgN/A
1:00 pm43 °FQuite cool.2 mph53%30.38 "HgN/A
12:00 pm38 °FChilly.No wind57%30.42 "HgN/A
11:00 am34 °FChilly.1 mph71%30.45 "HgN/A
10:00 am27 °FChilly.No wind85%30.47 "HgN/A
9:00 am19 °FCold.1 mph85%30.49 "HgN/A
8:00 am19 °FCold.1 mph89%30.47 "HgN/A
7:00 am19 °FCold.2 mph85%30.46 "HgN/A
Weather by CustomWeather, © 2017

See weather overviewHow to use our weather pages